K9UO Weather Reports


time (UTC)temp
C
wind
direction
speed
KPH
gust
KPH
rain 1hr
cm
rain 24hr
cm
rain mn
cm
humidity
%
barometer
mb
20260906052003 19 47 1.6 3.2 0.00 2.13 0.00 85 1015.9
20260906051506 19 66 1.6 3.2 0.00 2.13 0.00 85 1015.9
20260906051007 19 64 1.6 1.6 0.00 2.13 0.00 86 1015.9
20260906050503 19 63 1.6 3.2 0.00 2.13 0.00 86 1015.9
20260906050028 19 67 0.0 3.2 0.00 2.13 0.00 87 1015.9
20260906045506 19 66 1.6 3.2 0.00 2.13 0.00 87 1015.8
20260906045007 19 62 1.6 3.2 0.00 2.13 0.00 87 1015.8
20260906044528 19 65 1.6 3.2 0.00 2.13 0.00 87 1015.7
20260906044013 19 65 0.0 3.2 0.00 2.13 0.00 87 1015.8
20260906043512 19 65 0.0 3.2 0.00 2.13 0.00 86 1015.8
20260906043023 19 67 0.0 1.6 0.00 2.13 0.00 86 1015.6
20260906042511 19 67 0.0 1.6 0.00 2.13 0.00 86 1015.4
20260906042013 19 67 0.0 1.6 0.00 2.13 0.00 86 1015.4
20260906041508 19 67 0.0 1.6 0.00 2.13 0.00 86 1015.5
20260906041004 19 67 0.0 1.6 0.00 2.13 0.00 86 1015.4
20260906040503 19 67 0.0 3.2 0.00 2.13 0.00 85 1015.3
20260906040011 19 67 1.6 3.2 0.00 2.13 0.00 85 1015.3
20260906035505 20 65 1.6 3.2 0.00 2.13 2.13 84 1015.4
20260906035004 20 66 1.6 6.4 0.00 2.13 2.13 84 1015.4
20260906034517 20 66 3.2 6.4 0.00 2.13 2.13 84 1015.4
20260906034007 20 67 3.2 6.4 0.00 2.13 2.13 84 1015.4
20260906033509 20 72 4.8 6.4 0.00 2.13 2.13 83 1015.3
20260906033036 20 63 3.2 6.4 0.00 2.13 2.13 86 1015.3
20260906032511 20 57 3.2 6.4 0.00 2.13 2.13 86 1015.3
20260906032013 20 61 4.8 6.4 0.00 2.13 2.13 87 1015.3
20260906031530 20 56 3.2 6.4 0.00 2.13 2.13 88 1015.4
20260906031017 21 62 3.2 6.4 0.00 2.13 2.13 89 1015.4
20260906030503 21 70 3.2 3.2 0.00 2.13 2.13 89 1015.5
20260906030012 21 65 1.6 6.4 0.00 2.13 2.13 89 1015.4
20260906025504 21 70 3.2 8.0 0.00 2.13 2.13 89 1015.4
20260906025004 21 55 4.8 8.0 0.00 2.13 2.13 89 1015.3
20260906024514 21 63 4.8 8.0 0.00 2.13 2.13 89 1015.3
20260906024009 21 63 4.8 9.7 0.00 2.13 2.13 89 1015.3
20260906023508 21 75 4.8 9.7 0.00 2.13 2.13 89 1015.3
20260906023017 21 73 3.2 8.0 0.00 2.13 2.13 89 1015.2
20260906022509 21 64 3.2 8.0 0.00 2.13 2.13 89 1015.2
20260906022012 21 58 4.8 9.7 0.00 2.13 2.13 89 1015.2
20260906021528 21 72 3.2 9.7 0.00 2.13 2.13 88 1015.2
20260906021014 21 77 3.2 14.5 0.00 2.13 2.13 88 1015.2
20260906020513 21 61 4.8 14.5 0.00 2.13 2.13 88 1015.2
20260906020030 22 59 6.4 11.3 0.00 2.13 2.13 88 1015.1
20260906015504 21 52 3.2 11.3 0.00 2.13 2.13 89 1015.1
20260906015004 21 54 4.8 12.9 0.00 2.13 2.13 89 1014.9
20260906014511 21 59 6.4 12.9 0.00 2.13 2.13 89 1014.9
20260906014005 22 63 4.8 14.5 0.00 2.13 2.13 89 1014.8
20260906013506 22 67 4.8 14.5 0.00 2.13 2.13 88 1014.7
20260906013014 22 70 4.8 14.5 0.00 2.13 2.13 88 1014.6
20260906012509 22 57 4.8 14.5 0.00 2.13 2.13 88 1014.6
20260906012012 22 74 6.4 12.9 0.00 2.13 2.13 88 1014.4
20260906011533 22 53 6.4 14.5 0.00 2.13 2.13 88 1014.3
20260906011015 22 55 3.2 14.5 0.00 2.13 2.13 88 1014.2
20260906010516 22 65 4.8 12.9 0.00 2.13 2.13 88 1014.1
20260906010032 22 59 6.4 14.5 0.00 2.13 2.13 88 1014.2
20260906005515 22 61 6.4 14.5 0.00 2.13 2.13 88 1014.2
20260906005015 22 40 3.2 16.1 0.00 2.13 2.13 88 1014.2
20260906004509 23 55 6.4 16.1 0.00 2.13 2.13 88 1014.1
20260906004004 23 61 4.8 14.5 0.00 2.13 2.13 88 1014.0
20260906003506 23 63 1.6 14.5 0.00 2.13 2.13 88 1013.9
20260906003013 23 73 4.8 9.7 0.00 2.13 2.13 88 1013.8
20260906002510 23 53 3.2 8.0 0.00 2.13 2.13 88 1013.7
20260906002008 23 61 3.2 6.4 0.00 2.13 2.13 87 1013.7
20260906001523 23 49 1.6 4.8 0.00 2.13 2.13 87 1013.8
20260906001011 23 66 3.2 4.8 0.00 2.13 2.13 87 1013.7
20260906000513 23 53 3.2 4.8 0.00 2.13 2.13 86 1013.7
20260906000030 23 55 1.6 4.8 0.00 2.13 2.13 85 1013.7
20260905235515 23 61 1.6 8.0 0.00 2.13 2.13 85 1013.6
20260905235020 23 59 3.2 8.0 0.00 2.13 2.13 85 1013.6
20260905234530 24 67 1.6 6.4 0.00 2.13 2.13 85 1013.6
20260905234016 24 59 3.2 9.7 0.00 2.13 2.13 85 1013.5
20260905233506 24 72 4.8 9.7 0.00 2.13 2.13 85 1013.6
20260905233009 24 60 3.2 9.7 0.00 2.13 2.13 85 1013.6
20260905232507 24 59 3.2 4.8 0.00 2.13 2.13 85 1013.7
20260905232006 25 60 1.6 4.8 0.00 2.13 2.13 84 1013.7
20260905231520 25 54 1.6 9.7 0.00 2.13 2.13 85 1013.8
20260905231010 25 59 3.2 9.7 0.00 2.13 2.13 84 1013.8
20260905230511 25 69 4.8 11.3 0.00 2.13 2.13 83 1013.8
20260905230028 25 30 3.2 11.3 0.00 2.13 2.13 82 1013.8
20260905225515 25 54 1.6 4.8 0.00 2.13 2.13 83 1013.7
20260905225018 26 45 1.6 3.2 0.00 2.13 2.13 83 1013.6
20260905224533 25 47 1.6 3.2 0.00 2.13 2.13 83 1013.5
20260905224019 25 53 1.6 6.4 0.00 2.13 2.13 83 1013.5
20260905223515 25 42 1.6 6.4 0.00 2.13 2.13 83 1013.4
20260905223035 25 49 1.6 4.8 0.00 2.13 2.13 84 1013.3
20260905222505 26 57 1.6 4.8 0.00 2.13 2.13 84 1013.3
20260905222008 26 62 1.6 4.8 0.00 2.13 2.13 83 1013.2
20260905221517 26 38 1.6 9.7 0.00 2.13 2.13 82 1013.1
20260905221009 26 49 3.2 9.7 0.00 2.13 2.13 81 1012.9
20260905220510 26 77 4.8 14.5 0.00 2.13 2.13 81 1012.8
20260905220024 26 59 1.6 14.5 0.00 2.13 2.13 82 1012.9
20260905215513 26 59 1.6 6.4 0.00 2.13 2.13 81 1012.9
20260905215012 26 61 1.6 4.8 0.00 2.13 2.13 80 1012.9
20260905214527 27 39 1.6 3.2 0.00 2.13 2.13 79 1012.9
20260905214014 27 40 1.6 3.2 0.00 2.13 2.13 80 1012.7
20260905213512 27 40 1.6 3.2 0.00 2.13 2.13 79 1012.7
20260905213030 27 34 1.6 1.6 0.00 2.13 2.13 79 1012.6
20260905212515 27 52 1.6 3.2 0.00 2.13 2.13 79 1012.6
20260905212017 27 34 1.6 3.2 0.00 2.13 2.13 78 1012.7
20260905211511 27 46 1.6 3.2 0.00 2.13 2.13 78 1012.6
20260905211007 27 32 1.6 4.8 0.00 2.13 2.13 77 1012.8
20260905210511 28 64 1.6 4.8 0.00 2.13 2.13 78 1012.8
20260905210019 28 64 1.6 9.7 0.00 2.13 2.13 78 1012.8
20260905205511 28 42 1.6 9.7 0.00 2.13 2.13 78 1012.9
20260905205012 27 10 0.0 3.2 0.00 2.13 2.13 79 1012.9
20260905204527 27 29 1.6 4.8 0.00 2.13 2.13 80 1013.0
20260905204015 27 53 1.6 4.8 0.00 2.13 2.13 80 1013.1
20260905203514 27 59 1.6 4.8 0.00 2.13 2.13 81 1013.2
20260905203006 27 50 1.6 1.6 0.00 2.13 2.13 80 1013.3
20260905202503 27 49 1.6 3.2 0.00 2.13 2.13 79 1013.3
20260905202004 27 56 0.0 3.2 0.00 2.13 2.13 81 1013.3
20260905201509 27 56 0.0 3.2 0.00 2.13 2.13 79 1013.3
20260905201010 27 56 0.0 3.2 0.00 2.13 2.13 79 1013.3
20260905200507 27 352 0.0 6.4 0.00 2.13 2.13 78 1013.2
20260905200021 28 352 0.0 8.0 0.00 2.13 2.13 75 1013.2
20260905195510 28 350 3.2 12.9 0.00 2.13 2.13 73 1013.3
20260905195015 28 339 3.2 12.9 0.00 2.13 2.13 74 1013.3
20260905194527 28 344 3.2 9.7 0.00 2.13 2.13 74 1013.4
20260905194013 28 351 0.0 9.7 0.00 2.13 2.13 74 1013.4
20260905193513 28 345 6.4 9.7 0.00 2.13 2.13 72 1013.4
20260905193029 28 306 0.0 8.0 0.00 2.13 2.13 71 1013.5
20260905192514 28 352 1.6 8.0 0.00 2.13 2.13 72 1013.6
20260905192004 29 65 1.6 6.4 0.00 2.13 2.13 74 1013.6
20260905191508 29 348 1.6 6.4 0.00 2.13 2.13 74 1013.6
20260905191006 28 297 3.2 8.0 0.00 2.13 2.13 71 1013.6
20260905190508 28 301 1.6 8.0 0.00 2.13 2.13 71 1013.7
20260905190013 28 326 3.2 9.7 0.00 2.13 2.13 72 1013.8
20260905185509 28 257 4.8 9.7 0.00 2.13 2.13 72 1013.9
20260905185010 28 10 1.6 9.7 0.00 2.13 2.13 73 1013.9
20260905184523 28 324 3.2 8.0 0.00 2.13 2.13 71 1014.0
20260905184012 28 238 3.2 8.0 0.00 2.13 2.13 73 1014.0
20260905183513 28 273 1.6 9.7 0.00 2.13 2.13 74 1014.0
20260905183032 28 284 3.2 12.9 0.00 2.13 2.13 73 1014.0
20260905182515 28 234 4.8 12.9 0.00 2.13 2.13 72 1014.1
20260905182014 28 277 3.2 11.3 0.00 2.13 2.13 75 1014.1
20260905181543 28 334 4.8 11.3 0.00 2.13 2.13 73 1014.2
20260905181004 28 290 4.8 11.3 0.00 2.13 2.13 74 1014.2
20260905180504 27 329 1.6 9.7 0.00 2.13 2.13 76 1014.1
20260905180014 27 197 3.2 9.7 0.00 2.13 2.13 75 1014.2
20260905175508 27 275 3.2 9.7 0.00 2.13 2.13 77 1014.1
20260905175008 27 246 3.2 9.7 0.00 2.13 2.13 75 1014.2
20260905174524 27 254 1.6 8.0 0.00 2.13 2.13 73 1014.3
20260905174015 27 344 1.6 8.0 0.00 2.13 2.13 73 1014.4
20260905173512 27 315 4.8 8.0 0.00 2.13 2.13 74 1014.4
20260905173031 27 314 4.8 12.9 0.00 2.13 2.13 75 1014.4
20260905172513 27 319 3.2 12.9 0.00 2.13 2.13 75 1014.4
20260905172016 26 313 6.4 11.3 0.00 2.13 2.13 77 1014.5
20260905171538 26 306 4.8 11.3 0.00 2.13 2.13 78 1014.4
20260905171015 26 351 4.8 12.9 0.00 2.13 2.13 76 1014.3
20260905170517 26 342 8.0 12.9 0.00 2.13 2.13 76 1014.5
20260905170012 26 344 6.4 12.9 0.00 2.13 2.13 76 1014.4
20260905165503 26 332 3.2 9.7 0.00 2.13 2.13 78 1014.4
20260905165012 25 344 6.4 14.5 0.00 2.13 2.13 77 1014.6
20260905164516 25 334 8.0 14.5 0.00 2.13 2.13 77 1014.7
20260905164009 25 344 8.0 11.3 0.00 2.13 2.13 78 1014.6
20260905163510 25 348 4.8 9.7 0.00 2.13 2.13 82 1014.6
20260905163024 24 336 3.2 9.7 0.00 2.13 2.13 82 1014.5
20260905162516 23 202 1.6 11.3 0.00 2.13 2.13 86 1014.5
20260905162014 23 252 4.8 11.3 0.00 2.13 2.13 86 1014.5
20260905161529 23 336 6.4 9.7 0.00 2.13 2.13 91 1014.6
20260905161015 22 236 4.8 6.4 0.00 2.13 2.13 91 1014.6
20260905160517 21 210 0.0 6.4 0.00 2.13 2.13 90 1014.6
20260905160053 21 250 0.0 3.2 0.00 2.13 2.13 92 1014.5
20260905155514 21 70 0.0 3.2 0.00 2.13 2.13 92 1014.4
20260905155006 21 70 0.0 4.8 0.03 2.13 2.13 92 1014.3
20260905154512 21 170 1.6 8.0 0.03 2.13 2.13 92 1014.8
20260905154008 21 242 1.6 8.0 0.03 2.13 2.13 92 1014.8
20260905153508 21 155 3.2 6.4 0.03 2.13 2.13 92 1015.2
20260905153022 21 236 3.2 6.4 0.03 2.13 2.13 92 1015.2
20260905152511 21 348 1.6 6.4 0.05 2.13 2.13 92 1015.1
20260905152013 21 269 0.0 6.4 0.05 2.13 2.13 91 1015.1
20260905151533 21 211 1.6 6.4 0.05 2.13 2.13 91 1014.8
20260905151013 21 325 3.2 9.7 0.05 2.13 2.13 91 1015.0
20260905150514 21 344 4.8 9.7 0.08 2.13 2.13 91 1015.0
20260905150034 21 346 4.8 9.7 0.08 2.13 2.13 91 1015.1
20260905145517 21 338 6.4 9.7 0.08 2.13 2.13 91 1015.2
20260905145021 21 317 3.2 4.8 0.05 2.11 2.11 91 1014.9
20260905144532 21 342 0.0 3.2 0.05 2.11 2.11 91 1014.5
20260905144007 21 214 0.0 3.2 0.05 2.11 2.11 90 1014.4
20260905143508 21 214 0.0 8.0 0.05 2.11 2.11 90 1014.3
20260905143017 21 215 1.6 20.9 0.05 2.11 2.11 89 1014.2
20260905142508 21 345 8.0 20.9 0.03 2.08 2.08 89 1014.5
20260905142011 21 342 4.8 12.9 0.03 2.08 2.08 89 1014.4
20260905141523 21 334 1.6 3.2 0.03 2.08 2.08 88 1014.3
20260905141013 21 202 0.0 3.2 0.03 2.08 2.08 88 1014.1
20260905140514 21 206 1.6 4.8 0.00 2.06 2.06 88 1014.0
20260905140031 21 227 1.6 6.4 0.00 2.06 2.06 89 1014.3
20260905135513 21 190 0.0 8.0 0.00 2.06 2.06 88 1014.2
20260905135018 21 205 3.2 9.7 0.00 2.06 2.06 88 1014.1
20260905134535 21 214 3.2 11.3 0.00 2.06 2.06 87 1014.1
20260905134019 21 192 1.6 11.3 0.00 2.06 2.06 88 1013.8
20260905133517 22 173 1.6 11.3 0.00 2.06 2.06 88 1013.9
20260905133015 21 208 4.8 11.3 0.00 2.06 2.06 89 1014.0
20260905132510 21 140 4.8 11.3 0.00 2.06 2.06 89 1014.0
20260905132010 21 153 1.6 11.3 0.00 2.06 2.06 90 1014.0
20260905131523 21 144 1.6 8.0 0.03 2.06 2.06 90 1014.1
20260905131016 20 180 3.2 8.0 0.08 2.06 2.06 92 1014.0
20260905130512 20 190 1.6 8.0 0.08 2.06 2.06 92 1013.9
20260905130028 20 162 3.2 6.4 0.08 2.06 2.06 92 1014.1
20260905125515 20 154 1.6 9.7 0.08 2.06 2.06 92 1014.3
20260905125014 20 146 6.4 9.7 0.08 2.06 2.06 92 1014.6
20260905124538 19 129 3.2 4.8 0.08 2.06 2.06 92 1014.7
20260905124015 19 129 0.0 11.3 0.08 2.06 2.06 92 1014.8
20260905123516 19 100 1.6 11.3 0.08 2.06 2.06 91 1014.9
20260905123033 19 144 6.4 11.3 0.08 2.06 2.06 91 1014.9
20260905122517 19 112 4.8 9.7 0.08 2.06 2.06 91 1014.9
20260905122009 19 180 3.2 8.0 0.08 2.06 2.06 91 1014.9
20260905121521 19 172 3.2 8.0 0.05 2.03 2.03 91 1015.3
20260905121011 19 332 3.2 6.4 0.00 1.98 1.98 91 1015.5
20260905120511 19 57 3.2 9.7 0.03 1.98 1.98 92 1014.8
20260905120027 19 105 4.8 9.7 0.03 1.98 1.98 91 1014.8
20260905115514 19 63 4.8 8.0 0.03 1.98 1.98 92 1015.3
20260905115015 19 79 1.6 11.3 0.03 1.98 1.98 92 1015.1
20260905114529 19 102 1.6 11.3 0.03 1.98 1.98 93 1014.8
20260905114005 19 144 4.8 8.0 0.03 1.98 1.98 93 1014.8
20260905113503 19 88 3.2 6.4 0.10 1.98 1.98 93 1015.1
20260905113010 19 71 3.2 3.2 0.48 1.98 1.98 93 1015.1
20260905112506 19 67 3.2 3.2 0.74 1.98 1.98 93 1015.2
20260905112007 19 96 3.2 3.2 0.76 1.98 1.98 93 1015.3
20260905111516 19 79 0.0 6.4 0.84 1.98 1.98 93 1015.2
20260905111011 19 79 1.6 6.4 0.99 1.98 1.98 93 1015.0
20260905110510 19 146 4.8 6.4 1.17 1.96 1.96 93 1014.8
20260905110023 19 128 3.2 6.4 1.27 1.96 1.96 93 1014.6
20260905105502 19 123 1.6 8.0 1.32 1.96 1.96 93 1014.5
20260905105002 19 105 3.2 12.9 1.40 1.96 1.96 93 1014.7
20260905104511 19 61 6.4 16.1 1.45 1.96 1.96 93 1014.8
20260905104002 19 55 3.2 17.7 1.52 1.96 1.96 93 1015.2
20260905103505 18 80 9.7 19.3 1.55 1.88 1.88 92 1015.4
20260905103017 18 56 12.9 19.3 1.17 1.47 1.47 92 1015.1
20260905102505 18 79 9.7 19.3 0.94 1.24 1.24 92 1015.5
20260905102005 18 64 9.7 19.3 0.94 1.22 1.22 92 1015.4
20260905101516 18 74 11.3 16.1 0.91 1.14 1.14 92 1015.3
20260905101008 18 64 9.7 16.1 0.79 0.99 0.99 91 1015.8
20260905100510 19 59 6.4 16.1 0.69 0.79 0.79 91 1016.0
20260905100019 19 53 3.2 17.7 0.69 0.69 0.69 91 1016.3
20260905095510 19 65 8.0 17.7 0.61 0.61 0.61 91 1015.8
20260905095011 19 78 3.2 11.3 0.56 0.56 0.56 92 1016.0
20260905094534 19 60 3.2 4.8 0.51 0.51 0.51 91 1016.1
20260905094002 19 56 3.2 6.4 0.43 0.43 0.43 91 1016.2
20260905093502 19 37 3.2 17.7 0.33 0.33 0.33 91 1016.1
20260905093008 19 62 8.0 17.7 0.33 0.33 0.33 91 1015.6
20260905092503 19 68 8.0 17.7 0.30 0.30 0.30 91 1015.6
20260905092003 19 56 9.7 17.7 0.28 0.28 0.28 91 1015.9
20260905091529 19 95 9.7 16.1 0.23 0.23 0.23 91 1015.9
20260905091007 19 74 8.0 16.1 0.20 0.20 0.20 91 1016.1
20260905090506 19 38 4.8 14.5 0.10 0.10 0.10 90 1016.4
20260905090015 19 45 4.8 19.3 0.00 0.00 0.00 90 1016.9
20260905085512 20 59 9.7 30.6 0.00 0.00 0.00 88 1016.6
20260905085010 20 76 8.0 30.6 0.00 0.00 0.00 85 1016.8
20260905084526 21 74 11.3 32.2 0.00 0.00 0.00 82 1016.8
20260905084013 21 44 11.3 32.2 0.00 0.00 0.00 80 1016.7
20260905083514 21 57 11.3 30.6 0.00 0.00 0.00 80 1016.5
20260905083004 21 55 12.9 30.6 0.00 0.00 0.00 80 1016.4
20260905082503 21 58 8.0 24.1 0.00 0.00 0.00 80 1016.5
20260905082004 22 47 12.9 33.8 0.00 0.00 0.00 81 1016.1
20260905081511 22 59 11.3 33.8 0.00 0.00 0.00 84 1015.8
20260905081008 22 54 8.0 16.1 0.00 0.00 0.00 91 1015.7
20260905080503 21 74 6.4 12.9 0.00 0.00 0.00 92 1015.2
20260905080014 21 63 1.6 3.2 0.00 0.00 0.00 92 1014.3
20260905075510 21 63 1.6 3.2 0.00 0.00 0.00 92 1014.1
20260905075009 21 63 1.6 3.2 0.00 0.00 0.00 91 1013.9
20260905074524 21 66 1.6 4.8 0.00 0.00 0.00 90 1013.9
20260905074013 22 65 3.2 4.8 0.00 0.00 0.00 90 1013.7
20260905073511 22 207 0.0 3.2 0.00 0.00 0.00 91 1013.5
20260905073030 22 207 0.0 3.2 0.00 0.00 0.00 91 1013.4
20260905072517 22 207 0.0 3.2 0.00 0.00 0.00 91 1013.3
20260905072003 22 207 0.0 0.0 0.00 0.00 0.00 90 1013.3
20260905071515 22 207 0.0 0.0 0.00 0.00 0.00 90 1013.2
20260905071004 22 207 0.0 1.6 0.00 0.00 0.00 90 1013.1
20260905070503 22 207 0.0 1.6 0.00 0.00 0.00 90 1013.1
20260905070021 22 207 0.0 0.0 0.00 0.00 0.00 90 1012.9
20260905065508 22 207 0.0 0.0 0.00 0.00 0.00 90 1012.8
20260905065008 22 207 0.0 3.2 0.00 0.00 0.00 90 1012.7
20260905064524 22 207 0.0 3.2 0.00 0.00 0.00 90 1012.9
20260905064014 22 207 0.0 3.2 0.00 0.00 0.00 89 1012.8
20260905063512 22 207 1.6 3.2 0.00 0.00 0.00 89 1012.8
20260905063027 22 190 0.0 1.6 0.00 0.00 0.00 89 1012.9
20260905062518 22 190 0.0 3.2 0.00 0.00 0.00 89 1012.9
20260905062015 22 190 0.0 3.2 0.00 0.00 0.00 89 1013.1
20260905061532 22 188 0.0 3.2 0.00 0.00 0.00 89 1013.1
20260905061012 22 171 0.0 3.2 0.00 0.00 0.00 89 1013.1
20260905060508 22 161 0.0 3.2 0.00 0.00 0.00 89 1013.2
20260905060013 22 158 0.0 3.2 0.00 0.00 0.00 89 1013.4
20260905055505 22 158 0.0 3.2 0.00 0.00 0.00 89 1013.4
20260905055009 22 158 0.0 1.6 0.00 0.00 0.00 89 1013.6
20260905054518 22 158 1.6 3.2 0.00 0.00 0.00 90 1013.7
20260905054008 22 158 1.6 3.2 0.00 0.00 0.00 90 1013.8
20260905053512 22 198 0.0 4.8 0.00 0.00 0.00 90 1013.8
20260905053022 23 183 1.6 4.8 0.00 0.00 0.00 90 1013.9
20260905052516 23 190 0.0 3.2 0.00 0.00 0.00 90 1014.0